owner,sensor,date,latitude,longitude,vertical_datum,sea_water_practical_salinity,qcFlag 
NERRS,ioos:station:NOAA.NERRS:marcewq:1,2019-10-01T00:15:00Z,28.1323,-97.0344,1.96,23.5,11111222 
NERRS,ioos:station:NOAA.NERRS:marcewq:1,2019-10-01T01:15:00Z,28.1323,-97.0344,1.98,13.6,11111222 
NERRS,ioos:station:NOAA.NERRS:marcewq:1,2019-10-01T02:15:00Z,28.1323,-97.0344,2.0,14.7,11111222 
NERRS,ioos:station:NOAA.NERRS:marcewq:1,2019-10-01T03:15:00Z,28.1323,-97.0344,2.01,17.9,11111222 
NERRS,ioos:station:NOAA.NERRS:marcewq:1,2019-10-01T04:15:00Z,28.1323,-97.0344,2.01,20.1,11111222 
NERRS,ioos:station:NOAA.NERRS:marcewq:1,2019-10-01T05:15:00Z,28.1323,-97.0344,2.02,18.4,11111222 
NERRS,ioos:station:NOAA.NERRS:marcewq:1,2019-10-01T06:15:00Z,28.1323,-97.0344,2.03,18.5,11111222 
NERRS,ioos:station:NOAA.NERRS:marcewq:1,2019-10-01T07:15:00Z,28.1323,-97.0344,2.03,12.9,11111222 
NERRS,ioos:station:NOAA.NERRS:marcewq:1,2019-10-01T08:15:00Z,28.1323,-97.0344,2.03,14.3,11111222 
NERRS,ioos:station:NOAA.NERRS:marcewq:1,2019-10-01T09:15:00Z,28.1323,-97.0344,2.02,24.5,11111222 
NERRS,ioos:station:NOAA.NERRS:marcewq:1,2019-10-01T10:15:00Z,28.1323,-97.0344,2.03,14.4,11111222 
NERRS,ioos:station:NOAA.NERRS:marcewq:1,2019-10-01T11:15:00Z,28.1323,-97.0344,2.04,12.7,11111222 
NERRS,ioos:station:NOAA.NERRS:marcewq:1,2019-10-01T12:15:00Z,28.1323,-97.0344,2.04,11.5,11111222 
NERRS,ioos:station:NOAA.NERRS:marcewq:1,2019-10-01T13:15:00Z,28.1323,-97.0344,2.04,14.8,11111222 
NERRS,ioos:station:NOAA.NERRS:marcewq:1,2019-10-01T14:15:00Z,28.1323,-97.0344,2.03,20.8,11111222 
NERRS,ioos:station:NOAA.NERRS:marcewq:1,2019-10-01T15:15:00Z,28.1323,-97.0344,2.03,12.7,11111222 
NERRS,ioos:station:NOAA.NERRS:marcewq:1,2019-10-01T16:15:00Z,28.1323,-97.0344,2.02,17.7,11111222 
NERRS,ioos:station:NOAA.NERRS:marcewq:1,2019-10-01T17:15:00Z,28.1323,-97.0344,2.01,14.5,11111222 
NERRS,ioos:station:NOAA.NERRS:marcewq:1,2019-10-01T18:15:00Z,28.1323,-97.0344,1.99,15.8,11111222 
NERRS,ioos:station:NOAA.NERRS:marcewq:1,2019-10-01T19:15:00Z,28.1323,-97.0344,1.97,15.1,11111222 
NERRS,ioos:station:NOAA.NERRS:marcewq:1,2019-10-01T20:15:00Z,28.1323,-97.0344,1.96,14.6,11111222 
NERRS,ioos:station:NOAA.NERRS:marcewq:1,2019-10-01T21:15:00Z,28.1323,-97.0344,1.95,14.5,11111222 
NERRS,ioos:station:NOAA.NERRS:marcewq:1,2019-10-01T22:15:00Z,28.1323,-97.0344,1.93,23.3,11111222 
NERRS,ioos:station:NOAA.NERRS:marcewq:1,2019-10-01T23:15:00Z,28.1323,-97.0344,1.95,18.0,11111222 
NERRS,ioos:station:NOAA.NERRS:marcewq:1,2019-10-02T00:15:00Z,28.1323,-97.0344,1.95,18.3,11111222 
NERRS,ioos:station:NOAA.NERRS:marcewq:1,2019-10-02T01:15:00Z,28.1323,-97.0344,1.98,15.0,11111222 
NERRS,ioos:station:NOAA.NERRS:marcewq:1,2019-10-02T02:15:00Z,28.1323,-97.0344,2.0,16.7,11111222 
NERRS,ioos:station:NOAA.NERRS:marcewq:1,2019-10-02T03:15:00Z,28.1323,-97.0344,2.01,20.3,11111222 
NERRS,ioos:station:NOAA.NERRS:marcewq:1,2019-10-02T04:15:00Z,28.1323,-97.0344,2.03,15.1,11111222 
NERRS,ioos:station:NOAA.NERRS:marcewq:1,2019-10-02T05:15:00Z,28.1323,-97.0344,2.04,14.9,11111222 
NERRS,ioos:station:NOAA.NERRS:marcewq:1,2019-10-02T06:15:00Z,28.1323,-97.0344,2.04,16.2,11111222 
NERRS,ioos:station:NOAA.NERRS:marcewq:1,2019-10-02T07:15:00Z,28.1323,-97.0344,2.05,14.7,11111222 
NERRS,ioos:station:NOAA.NERRS:marcewq:1,2019-10-02T08:15:00Z,28.1323,-97.0344,2.06,15.2,11111222 
NERRS,ioos:station:NOAA.NERRS:marcewq:1,2019-10-02T09:15:00Z,28.1323,-97.0344,2.06,19.3,11111222 
NERRS,ioos:station:NOAA.NERRS:marcewq:1,2019-10-02T10:15:00Z,28.1323,-97.0344,2.07,14.1,11111222 
NERRS,ioos:station:NOAA.NERRS:marcewq:1,2019-10-02T11:15:00Z,28.1323,-97.0344,2.06,18.6,11111222 
NERRS,ioos:station:NOAA.NERRS:marcewq:1,2019-10-02T12:15:00Z,28.1323,-97.0344,2.06,18.0,11111222 
NERRS,ioos:station:NOAA.NERRS:marcewq:1,2019-10-02T13:15:00Z,28.1323,-97.0344,2.05,20.7,11111222 
NERRS,ioos:station:NOAA.NERRS:marcewq:1,2019-10-02T14:15:00Z,28.1323,-97.0344,2.04,23.5,11111222 
NERRS,ioos:station:NOAA.NERRS:marcewq:1,2019-10-02T15:15:00Z,28.1323,-97.0344,2.03,22.4,11111222 
NERRS,ioos:station:NOAA.NERRS:marcewq:1,2019-10-02T16:15:00Z,28.1323,-97.0344,2.03,15.8,11111222 
NERRS,ioos:station:NOAA.NERRS:marcewq:1,2019-10-02T17:15:00Z,28.1323,-97.0344,2.01,20.2,11111222 
NERRS,ioos:station:NOAA.NERRS:marcewq:1,2019-10-02T18:15:00Z,28.1323,-97.0344,1.99,19.3,11111222 
NERRS,ioos:station:NOAA.NERRS:marcewq:1,2019-10-02T19:15:00Z,28.1323,-97.0344,1.97,21.0,11111222 
NERRS,ioos:station:NOAA.NERRS:marcewq:1,2019-10-02T20:15:00Z,28.1323,-97.0344,1.95,21.7,11111222 
NERRS,ioos:station:NOAA.NERRS:marcewq:1,2019-10-02T21:15:00Z,28.1323,-97.0344,1.94,19.4,11111222 
NERRS,ioos:station:NOAA.NERRS:marcewq:1,2019-10-02T22:15:00Z,28.1323,-97.0344,1.92,19.1,11111222 
NERRS,ioos:station:NOAA.NERRS:marcewq:1,2019-10-02T23:15:00Z,28.1323,-97.0344,1.93,12.6,11111222 
NERRS,ioos:station:NOAA.NERRS:marcewq:1,2019-10-03T00:15:00Z,28.1323,-97.0344,1.93,12.4,11111222 
NERRS,ioos:station:NOAA.NERRS:marcewq:1,2019-10-03T01:15:00Z,28.1323,-97.0344,1.92,17.2,11111222 
NERRS,ioos:station:NOAA.NERRS:marcewq:1,2019-10-03T02:15:00Z,28.1323,-97.0344,1.94,18.6,11111222 
NERRS,ioos:station:NOAA.NERRS:marcewq:1,2019-10-03T03:15:00Z,28.1323,-97.0344,1.97,15.1,11111222 
NERRS,ioos:station:NOAA.NERRS:marcewq:1,2019-10-03T04:15:00Z,28.1323,-97.0344,1.99,11.8,11111222 
NERRS,ioos:station:NOAA.NERRS:marcewq:1,2019-10-03T05:15:00Z,28.1323,-97.0344,2.0,13.2,11111222 
NERRS,ioos:station:NOAA.NERRS:marcewq:1,2019-10-03T06:15:00Z,28.1323,-97.0344,2.01,15.7,11111222 
NERRS,ioos:station:NOAA.NERRS:marcewq:1,2019-10-03T07:15:00Z,28.1323,-97.0344,2.02,15.3,11111222 
NERRS,ioos:station:NOAA.NERRS:marcewq:1,2019-10-03T08:15:00Z,28.1323,-97.0344,2.03,13.3,11111222 
NERRS,ioos:station:NOAA.NERRS:marcewq:1,2019-10-03T09:15:00Z,28.1323,-97.0344,2.04,16.0,11111222 
NERRS,ioos:station:NOAA.NERRS:marcewq:1,2019-10-03T10:15:00Z,28.1323,-97.0344,2.04,20.3,11111222 
NERRS,ioos:station:NOAA.NERRS:marcewq:1,2019-10-03T11:15:00Z,28.1323,-97.0344,2.04,17.0,11111222 
NERRS,ioos:station:NOAA.NERRS:marcewq:1,2019-10-03T12:15:00Z,28.1323,-97.0344,2.04,19.9,11111222 
NERRS,ioos:station:NOAA.NERRS:marcewq:1,2019-10-03T13:15:00Z,28.1323,-97.0344,2.03,19.1,11111222 
NERRS,ioos:station:NOAA.NERRS:marcewq:1,2019-10-03T14:15:00Z,28.1323,-97.0344,2.05,16.1,11111222 
NERRS,ioos:station:NOAA.NERRS:marcewq:1,2019-10-03T15:15:00Z,28.1323,-97.0344,2.03,22.3,11111222 
NERRS,ioos:station:NOAA.NERRS:marcewq:1,2019-10-03T16:15:00Z,28.1323,-97.0344,2.03,20.7,11111222 
NERRS,ioos:station:NOAA.NERRS:marcewq:1,2019-10-03T17:15:00Z,28.1323,-97.0344,2.01,19.3,11111222 
NERRS,ioos:station:NOAA.NERRS:marcewq:1,2019-10-03T18:15:00Z,28.1323,-97.0344,2.0,15.1,11111222 
NERRS,ioos:station:NOAA.NERRS:marcewq:1,2019-10-03T19:15:00Z,28.1323,-97.0344,1.96,16.7,11111222 
NERRS,ioos:station:NOAA.NERRS:marcewq:1,2019-10-03T20:15:00Z,28.1323,-97.0344,1.96,21.3,11111222 
NERRS,ioos:station:NOAA.NERRS:marcewq:1,2019-10-03T21:15:00Z,28.1323,-97.0344,1.95,23.2,11111222 
NERRS,ioos:station:NOAA.NERRS:marcewq:1,2019-10-03T22:15:00Z,28.1323,-97.0344,1.95,17.1,11111222 
NERRS,ioos:station:NOAA.NERRS:marcewq:1,2019-10-03T23:15:00Z,28.1323,-97.0344,1.94,18.0,11111222 
NERRS,ioos:station:NOAA.NERRS:marcewq:1,2019-10-04T00:15:00Z,28.1323,-97.0344,1.91,24.1,11111222 
NERRS,ioos:station:NOAA.NERRS:marcewq:1,2019-10-04T01:15:00Z,28.1323,-97.0344,1.92,19.2,11111222 
NERRS,ioos:station:NOAA.NERRS:marcewq:1,2019-10-04T02:15:00Z,28.1323,-97.0344,1.92,21.6,11111222 
NERRS,ioos:station:NOAA.NERRS:marcewq:1,2019-10-04T03:15:00Z,28.1323,-97.0344,1.96,18.0,11111222 
NERRS,ioos:station:NOAA.NERRS:marcewq:1,2019-10-04T04:15:00Z,28.1323,-97.0344,1.98,12.2,11111222 
NERRS,ioos:station:NOAA.NERRS:marcewq:1,2019-10-04T05:15:00Z,28.1323,-97.0344,2.0,14.6,11111222 
NERRS,ioos:station:NOAA.NERRS:marcewq:1,2019-10-04T06:15:00Z,28.1323,-97.0344,2.0,18.7,11111222 
NERRS,ioos:station:NOAA.NERRS:marcewq:1,2019-10-04T07:15:00Z,28.1323,-97.0344,1.99,14.7,11111222 
NERRS,ioos:station:NOAA.NERRS:marcewq:1,2019-10-04T08:15:00Z,28.1323,-97.0344,2.03,15.4,11111222 
NERRS,ioos:station:NOAA.NERRS:marcewq:1,2019-10-04T09:15:00Z,28.1323,-97.0344,2.04,13.0,11111222 
NERRS,ioos:station:NOAA.NERRS:marcewq:1,2019-10-04T10:15:00Z,28.1323,-97.0344,2.03,17.2,11111222 
NERRS,ioos:station:NOAA.NERRS:marcewq:1,2019-10-04T11:15:00Z,28.1323,-97.0344,2.04,11.7,11111222 
NERRS,ioos:station:NOAA.NERRS:marcewq:1,2019-10-04T12:15:00Z,28.1323,-97.0344,2.05,12.4,11111222 
NERRS,ioos:station:NOAA.NERRS:marcewq:1,2019-10-04T13:15:00Z,28.1323,-97.0344,2.03,23.5,11111222 
NERRS,ioos:station:NOAA.NERRS:marcewq:1,2019-10-04T14:15:00Z,28.1323,-97.0344,2.05,14.7,11111222 
NERRS,ioos:station:NOAA.NERRS:marcewq:1,2019-10-04T15:15:00Z,28.1323,-97.0344,2.05,14.3,11111222 
NERRS,ioos:station:NOAA.NERRS:marcewq:1,2019-10-04T16:15:00Z,28.1323,-97.0344,2.04,21.6,11111222 
NERRS,ioos:station:NOAA.NERRS:marcewq:1,2019-10-04T17:15:00Z,28.1323,-97.0344,2.03,16.8,11111222 
NERRS,ioos:station:NOAA.NERRS:marcewq:1,2019-10-04T18:15:00Z,28.1323,-97.0344,2.01,17.5,11111222 
NERRS,ioos:station:NOAA.NERRS:marcewq:1,2019-10-04T19:15:00Z,28.1323,-97.0344,2.0,17.6,11111222 
NERRS,ioos:station:NOAA.NERRS:marcewq:1,2019-10-04T20:15:00Z,28.1323,-97.0344,1.96,23.4,11111222 
NERRS,ioos:station:NOAA.NERRS:marcewq:1,2019-10-04T21:15:00Z,28.1323,-97.0344,1.94,23.4,11111222 
NERRS,ioos:station:NOAA.NERRS:marcewq:1,2019-10-04T22:15:00Z,28.1323,-97.0344,1.94,19.9,11111222 
NERRS,ioos:station:NOAA.NERRS:marcewq:1,2019-10-04T23:15:00Z,28.1323,-97.0344,1.94,22.0,11111222 
NERRS,ioos:station:NOAA.NERRS:marcewq:1,2019-10-05T00:15:00Z,28.1323,-97.0344,1.93,15.1,11111222 
NERRS,ioos:station:NOAA.NERRS:marcewq:1,2019-10-05T01:15:00Z,28.1323,-97.0344,1.92,14.8,11111222 
NERRS,ioos:station:NOAA.NERRS:marcewq:1,2019-10-05T02:15:00Z,28.1323,-97.0344,1.93,15.4,11111222 
NERRS,ioos:station:NOAA.NERRS:marcewq:1,2019-10-05T03:15:00Z,28.1323,-97.0344,1.92,22.4,11111222 
NERRS,ioos:station:NOAA.NERRS:marcewq:1,2019-10-05T04:15:00Z,28.1323,-97.0344,1.93,22.4,11111222 
NERRS,ioos:station:NOAA.NERRS:marcewq:1,2019-10-05T05:15:00Z,28.1323,-97.0344,1.95,13.8,11111222 
NERRS,ioos:station:NOAA.NERRS:marcewq:1,2019-10-05T06:15:00Z,28.1323,-97.0344,1.96,14.2,11111222 
NERRS,ioos:station:NOAA.NERRS:marcewq:1,2019-10-05T07:15:00Z,28.1323,-97.0344,1.97,14.3,11111222 
NERRS,ioos:station:NOAA.NERRS:marcewq:1,2019-10-05T08:15:00Z,28.1323,-97.0344,1.97,16.0,11111222 
NERRS,ioos:station:NOAA.NERRS:marcewq:1,2019-10-05T09:15:00Z,28.1323,-97.0344,1.97,16.6,11111222 
NERRS,ioos:station:NOAA.NERRS:marcewq:1,2019-10-05T10:15:00Z,28.1323,-97.0344,1.96,24.5,11111222 
NERRS,ioos:station:NOAA.NERRS:marcewq:1,2019-10-05T11:15:00Z,28.1323,-97.0344,1.98,19.6,11111222 
NERRS,ioos:station:NOAA.NERRS:marcewq:1,2019-10-05T12:15:00Z,28.1323,-97.0344,1.98,19.5,11111222 
NERRS,ioos:station:NOAA.NERRS:marcewq:1,2019-10-05T13:15:00Z,28.1323,-97.0344,1.98,22.4,11111222 
NERRS,ioos:station:NOAA.NERRS:marcewq:1,2019-10-05T14:15:00Z,28.1323,-97.0344,1.99,13.9,11111222 
NERRS,ioos:station:NOAA.NERRS:marcewq:1,2019-10-05T15:15:00Z,28.1323,-97.0344,1.98,23.6,11111222 
NERRS,ioos:station:NOAA.NERRS:marcewq:1,2019-10-05T16:15:00Z,28.1323,-97.0344,1.97,24.1,11111222 
NERRS,ioos:station:NOAA.NERRS:marcewq:1,2019-10-05T18:15:00Z,28.1323,-97.0344,1.96,14.8,11111222 
NERRS,ioos:station:NOAA.NERRS:marcewq:1,2019-10-05T19:15:00Z,28.1323,-97.0344,1.92,21.0,11111222 
NERRS,ioos:station:NOAA.NERRS:marcewq:1,2019-10-05T20:15:00Z,28.1323,-97.0344,1.89,24.6,11111222 
NERRS,ioos:station:NOAA.NERRS:marcewq:1,2019-10-05T21:15:00Z,28.1323,-97.0344,1.88,22.8,11111222 
NERRS,ioos:station:NOAA.NERRS:marcewq:1,2019-10-05T22:15:00Z,28.1323,-97.0344,1.87,22.9,11111222 
NERRS,ioos:station:NOAA.NERRS:marcewq:1,2019-10-05T23:15:00Z,28.1323,-97.0344,1.86,22.3,11111222 
NERRS,ioos:station:NOAA.NERRS:marcewq:1,2019-10-06T00:15:00Z,28.1323,-97.0344,1.86,20.3,11111222 
NERRS,ioos:station:NOAA.NERRS:marcewq:1,2019-10-06T01:15:00Z,28.1323,-97.0344,1.85,14.8,11111222 
NERRS,ioos:station:NOAA.NERRS:marcewq:1,2019-10-06T02:15:00Z,28.1323,-97.0344,1.84,18.3,11111222 
NERRS,ioos:station:NOAA.NERRS:marcewq:1,2019-10-06T03:15:00Z,28.1323,-97.0344,1.83,24.3,11111222 
NERRS,ioos:station:NOAA.NERRS:marcewq:1,2019-10-06T04:15:00Z,28.1323,-97.0344,1.85,15.7,11111222 
NERRS,ioos:station:NOAA.NERRS:marcewq:1,2019-10-06T05:15:00Z,28.1323,-97.0344,1.86,17.4,11111222 
NERRS,ioos:station:NOAA.NERRS:marcewq:1,2019-10-06T06:15:00Z,28.1323,-97.0344,1.86,20.3,11111222 
NERRS,ioos:station:NOAA.NERRS:marcewq:1,2019-10-06T07:15:00Z,28.1323,-97.0344,1.88,18.6,11111222 
NERRS,ioos:station:NOAA.NERRS:marcewq:1,2019-10-06T08:15:00Z,28.1323,-97.0344,1.9,14.4,11111222 
NERRS,ioos:station:NOAA.NERRS:marcewq:1,2019-10-06T09:15:00Z,28.1323,-97.0344,1.91,14.7,11111222 
NERRS,ioos:station:NOAA.NERRS:marcewq:1,2019-10-06T10:15:00Z,28.1323,-97.0344,1.92,14.7,11111222 
NERRS,ioos:station:NOAA.NERRS:marcewq:1,2019-10-06T11:15:00Z,28.1323,-97.0344,1.93,16.6,11111222 
NERRS,ioos:station:NOAA.NERRS:marcewq:1,2019-10-06T12:15:00Z,28.1323,-97.0344,1.94,16.6,11111222 
NERRS,ioos:station:NOAA.NERRS:marcewq:1,2019-10-06T13:15:00Z,28.1323,-97.0344,1.95,10.7,11111222 
NERRS,ioos:station:NOAA.NERRS:marcewq:1,2019-10-06T14:15:00Z,28.1323,-97.0344,1.96,13.7,11111222 
NERRS,ioos:station:NOAA.NERRS:marcewq:1,2019-10-06T15:15:00Z,28.1323,-97.0344,1.97,13.2,11111222 
NERRS,ioos:station:NOAA.NERRS:marcewq:1,2019-10-06T16:15:00Z,28.1323,-97.0344,1.97,14.1,11111222 
NERRS,ioos:station:NOAA.NERRS:marcewq:1,2019-10-06T17:15:00Z,28.1323,-97.0344,1.97,14.8,11111222 
NERRS,ioos:station:NOAA.NERRS:marcewq:1,2019-10-06T18:15:00Z,28.1323,-97.0344,1.95,19.3,11111222 
NERRS,ioos:station:NOAA.NERRS:marcewq:1,2019-10-06T19:15:00Z,28.1323,-97.0344,1.93,21.1,11111222 
NERRS,ioos:station:NOAA.NERRS:marcewq:1,2019-10-06T20:15:00Z,28.1323,-97.0344,1.92,17.1,11111222 
NERRS,ioos:station:NOAA.NERRS:marcewq:1,2019-10-06T21:15:00Z,28.1323,-97.0344,1.89,21.7,11111222 
NERRS,ioos:station:NOAA.NERRS:marcewq:1,2019-10-06T22:15:00Z,28.1323,-97.0344,1.89,15.0,11111222 
NERRS,ioos:station:NOAA.NERRS:marcewq:1,2019-10-06T23:15:00Z,28.1323,-97.0344,1.88,14.1,11111222 
NERRS,ioos:station:NOAA.NERRS:marcewq:1,2019-10-07T00:15:00Z,28.1323,-97.0344,1.86,23.1,11111222 
NERRS,ioos:station:NOAA.NERRS:marcewq:1,2019-10-07T01:15:00Z,28.1323,-97.0344,1.87,14.2,11111222 
NERRS,ioos:station:NOAA.NERRS:marcewq:1,2019-10-07T02:15:00Z,28.1323,-97.0344,1.85,19.7,11111222 
NERRS,ioos:station:NOAA.NERRS:marcewq:1,2019-10-07T03:15:00Z,28.1323,-97.0344,1.85,24.4,11111222 
NERRS,ioos:station:NOAA.NERRS:marcewq:1,2019-10-07T04:15:00Z,28.1323,-97.0344,1.86,21.1,11111222 
NERRS,ioos:station:NOAA.NERRS:marcewq:1,2019-10-07T05:15:00Z,28.1323,-97.0344,1.87,17.0,11111222 
NERRS,ioos:station:NOAA.NERRS:marcewq:1,2019-10-07T06:15:00Z,28.1323,-97.0344,1.88,14.0,11111222 
NERRS,ioos:station:NOAA.NERRS:marcewq:1,2019-10-07T07:15:00Z,28.1323,-97.0344,1.89,19.2,11111222 
NERRS,ioos:station:NOAA.NERRS:marcewq:1,2019-10-07T08:15:00Z,28.1323,-97.0344,1.91,17.7,11111222 
NERRS,ioos:station:NOAA.NERRS:marcewq:1,2019-10-07T09:15:00Z,28.1323,-97.0344,1.92,15.5,11111222 
NERRS,ioos:station:NOAA.NERRS:marcewq:1,2019-10-07T10:15:00Z,28.1323,-97.0344,1.93,17.1,11111222 
NERRS,ioos:station:NOAA.NERRS:marcewq:1,2019-10-07T11:15:00Z,28.1323,-97.0344,1.93,17.7,11111222 
NERRS,ioos:station:NOAA.NERRS:marcewq:1,2019-10-07T12:15:00Z,28.1323,-97.0344,1.94,12.7,11111222 
NERRS,ioos:station:NOAA.NERRS:marcewq:1,2019-10-07T14:15:00Z,28.1323,-97.0344,1.95,18.7,11111222 
NERRS,ioos:station:NOAA.NERRS:marcewq:1,2019-10-07T15:15:00Z,28.1323,-97.0344,1.95,19.5,11111222 
NERRS,ioos:station:NOAA.NERRS:marcewq:1,2019-10-07T16:15:00Z,28.1323,-97.0344,1.95,21.3,11111222 
NERRS,ioos:station:NOAA.NERRS:marcewq:1,2019-10-07T17:15:00Z,28.1323,-97.0344,1.95,17.0,11111222 
NERRS,ioos:station:NOAA.NERRS:marcewq:1,2019-10-07T18:15:00Z,28.1323,-97.0344,1.94,20.2,11111222 
NERRS,ioos:station:NOAA.NERRS:marcewq:1,2019-10-07T19:15:00Z,28.1323,-97.0344,1.92,24.8,11111222 
NERRS,ioos:station:NOAA.NERRS:marcewq:1,2019-10-07T20:15:00Z,28.1323,-97.0344,1.91,21.0,11111222 
NERRS,ioos:station:NOAA.NERRS:marcewq:1,2019-10-07T21:15:00Z,28.1323,-97.0344,1.89,24.1,11111222 
NERRS,ioos:station:NOAA.NERRS:marcewq:1,2019-10-07T22:15:00Z,28.1323,-97.0344,1.87,21.6,11111222 
NERRS,ioos:station:NOAA.NERRS:marcewq:1,2019-10-07T23:15:00Z,28.1323,-97.0344,1.88,14.3,11111222 
NERRS,ioos:station:NOAA.NERRS:marcewq:1,2019-10-08T00:15:00Z,28.1323,-97.0344,1.87,13.5,11111222 
NERRS,ioos:station:NOAA.NERRS:marcewq:1,2019-10-08T01:15:00Z,28.1323,-97.0344,1.87,16.0,11111222 
NERRS,ioos:station:NOAA.NERRS:marcewq:1,2019-10-08T02:15:00Z,28.1323,-97.0344,1.86,18.1,11111222 
NERRS,ioos:station:NOAA.NERRS:marcewq:1,2019-10-08T03:15:00Z,28.1323,-97.0344,1.84,17.2,11111222 
NERRS,ioos:station:NOAA.NERRS:marcewq:1,2019-10-08T04:15:00Z,28.1323,-97.0344,1.84,19.1,11111222 
NERRS,ioos:station:NOAA.NERRS:marcewq:1,2019-10-08T05:15:00Z,28.1323,-97.0344,1.83,14.2,11111222 
NERRS,ioos:station:NOAA.NERRS:marcewq:1,2019-10-08T06:15:00Z,28.1323,-97.0344,1.82,13.9,11111222 
NERRS,ioos:station:NOAA.NERRS:marcewq:1,2019-10-08T07:15:00Z,28.1323,-97.0344,1.82,24.5,11111222 
NERRS,ioos:station:NOAA.NERRS:marcewq:1,2019-10-08T08:15:00Z,28.1323,-97.0344,1.86,14.0,11111222 
NERRS,ioos:station:NOAA.NERRS:marcewq:1,2019-10-08T09:15:00Z,28.1323,-97.0344,1.86,18.4,11111222 
NERRS,ioos:station:NOAA.NERRS:marcewq:1,2019-10-08T10:15:00Z,28.1323,-97.0344,1.88,17.3,11111222 
NERRS,ioos:station:NOAA.NERRS:marcewq:1,2019-10-08T11:15:00Z,28.1323,-97.0344,1.89,14.4,11111222 
NERRS,ioos:station:NOAA.NERRS:marcewq:1,2019-10-08T12:15:00Z,28.1323,-97.0344,1.9,15.9,11111222 
NERRS,ioos:station:NOAA.NERRS:marcewq:1,2019-10-08T13:15:00Z,28.1323,-97.0344,1.91,18.2,11111222 
NERRS,ioos:station:NOAA.NERRS:marcewq:1,2019-10-08T14:15:00Z,28.1323,-97.0344,1.93,17.6,11111222 
NERRS,ioos:station:NOAA.NERRS:marcewq:1,2019-10-08T16:15:00Z,28.1323,-97.0344,1.96,17.1,11111222 
NERRS,ioos:station:NOAA.NERRS:marcewq:1,2019-10-08T17:15:00Z,28.1323,-97.0344,1.96,19.9,11111222 
NERRS,ioos:station:NOAA.NERRS:marcewq:1,2019-10-08T18:15:00Z,28.1323,-97.0344,1.97,17.7,11111222 
NERRS,ioos:station:NOAA.NERRS:marcewq:1,2019-10-08T19:15:00Z,28.1323,-97.0344,1.96,17.9,11111222 
NERRS,ioos:station:NOAA.NERRS:marcewq:1,2019-10-08T20:15:00Z,28.1323,-97.0344,1.95,21.8,11111222 
NERRS,ioos:station:NOAA.NERRS:marcewq:1,2019-10-08T21:15:00Z,28.1323,-97.0344,1.96,20.9,11111222 
NERRS,ioos:station:NOAA.NERRS:marcewq:1,2019-10-08T22:15:00Z,28.1323,-97.0344,1.96,15.3,11111222 
NERRS,ioos:station:NOAA.NERRS:marcewq:1,2019-10-08T23:15:00Z,28.1323,-97.0344,1.95,13.2,11111222 
NERRS,ioos:station:NOAA.NERRS:marcewq:1,2019-10-09T00:15:00Z,28.1323,-97.0344,1.94,24.5,11111222 
NERRS,ioos:station:NOAA.NERRS:marcewq:1,2019-10-09T01:15:00Z,28.1323,-97.0344,1.94,24.6,11111222 
NERRS,ioos:station:NOAA.NERRS:marcewq:1,2019-10-09T02:15:00Z,28.1323,-97.0344,1.93,24.8,11111222 
NERRS,ioos:station:NOAA.NERRS:marcewq:1,2019-10-09T03:15:00Z,28.1323,-97.0344,1.92,19.6,11111222 
NERRS,ioos:station:NOAA.NERRS:marcewq:1,2019-10-09T04:15:00Z,28.1323,-97.0344,1.91,22.4,11111222 
NERRS,ioos:station:NOAA.NERRS:marcewq:1,2019-10-09T05:15:00Z,28.1323,-97.0344,1.91,23.7,11111222 
NERRS,ioos:station:NOAA.NERRS:marcewq:1,2019-10-09T06:15:00Z,28.1323,-97.0344,1.92,23.6,11111222 
NERRS,ioos:station:NOAA.NERRS:marcewq:1,2019-10-09T07:15:00Z,28.1323,-97.0344,1.92,20.9,11111222 
NERRS,ioos:station:NOAA.NERRS:marcewq:1,2019-10-09T08:15:00Z,28.1323,-97.0344,1.93,22.6,11111222 
NERRS,ioos:station:NOAA.NERRS:marcewq:1,2019-10-09T09:15:00Z,28.1323,-97.0344,1.94,23.6,11111222 
NERRS,ioos:station:NOAA.NERRS:marcewq:1,2019-10-09T10:15:00Z,28.1323,-97.0344,1.96,19.0,11111222 
NERRS,ioos:station:NOAA.NERRS:marcewq:1,2019-10-09T11:15:00Z,28.1323,-97.0344,1.97,20.5,11111222 
NERRS,ioos:station:NOAA.NERRS:marcewq:1,2019-10-09T12:15:00Z,28.1323,-97.0344,1.99,15.0,11111222 
NERRS,ioos:station:NOAA.NERRS:marcewq:1,2019-10-09T13:15:00Z,28.1323,-97.0344,1.99,18.7,11111222 
NERRS,ioos:station:NOAA.NERRS:marcewq:1,2019-10-09T14:15:00Z,28.1323,-97.0344,2.0,16.4,11111222 
NERRS,ioos:station:NOAA.NERRS:marcewq:1,2019-10-09T15:15:00Z,28.1323,-97.0344,2.0,20.4,11111222 
NERRS,ioos:station:NOAA.NERRS:marcewq:1,2019-10-09T16:15:00Z,28.1323,-97.0344,2.02,12.3,11111222 
NERRS,ioos:station:NOAA.NERRS:marcewq:1,2019-10-09T17:15:00Z,28.1323,-97.0344,2.01,16.3,11111222 
NERRS,ioos:station:NOAA.NERRS:marcewq:1,2019-10-09T18:15:00Z,28.1323,-97.0344,2.02,11.2,11111222 
NERRS,ioos:station:NOAA.NERRS:marcewq:1,2019-10-09T19:15:00Z,28.1323,-97.0344,1.99,22.8,11111222 
NERRS,ioos:station:NOAA.NERRS:marcewq:1,2019-10-09T20:15:00Z,28.1323,-97.0344,1.98,24.7,11111222 
NERRS,ioos:station:NOAA.NERRS:marcewq:1,2019-10-09T21:15:00Z,28.1323,-97.0344,1.98,14.0,11111222 
NERRS,ioos:station:NOAA.NERRS:marcewq:1,2019-10-09T22:15:00Z,28.1323,-97.0344,1.96,24.2,11111222 
NERRS,ioos:station:NOAA.NERRS:marcewq:1,2019-10-10T01:15:00Z,28.1323,-97.0344,1.94,18.8,11111222 
NERRS,ioos:station:NOAA.NERRS:marcewq:1,2019-10-10T02:15:00Z,28.1323,-97.0344,1.94,17.4,11111222 
NERRS,ioos:station:NOAA.NERRS:marcewq:1,2019-10-10T03:15:00Z,28.1323,-97.0344,1.94,18.5,11111222 
NERRS,ioos:station:NOAA.NERRS:marcewq:1,2019-10-10T04:15:00Z,28.1323,-97.0344,1.93,17.1,11111222 
NERRS,ioos:station:NOAA.NERRS:marcewq:1,2019-10-10T05:15:00Z,28.1323,-97.0344,1.93,14.8,11111222 
NERRS,ioos:station:NOAA.NERRS:marcewq:1,2019-10-10T06:15:00Z,28.1323,-97.0344,1.93,15.4,11111222 
NERRS,ioos:station:NOAA.NERRS:marcewq:1,2019-10-10T07:15:00Z,28.1323,-97.0344,1.95,15.2,11111222 
NERRS,ioos:station:NOAA.NERRS:marcewq:1,2019-10-10T08:15:00Z,28.1323,-97.0344,1.96,14.3,11111222 
NERRS,ioos:station:NOAA.NERRS:marcewq:1,2019-10-10T09:15:00Z,28.1323,-97.0344,1.96,16.8,11111222 
NERRS,ioos:station:NOAA.NERRS:marcewq:1,2019-10-10T10:15:00Z,28.1323,-97.0344,1.96,17.2,11111222 
NERRS,ioos:station:NOAA.NERRS:marcewq:1,2019-10-10T11:15:00Z,28.1323,-97.0344,1.98,16.8,11111222 
NERRS,ioos:station:NOAA.NERRS:marcewq:1,2019-10-10T12:15:00Z,28.1323,-97.0344,1.98,16.8,11111222 
NERRS,ioos:station:NOAA.NERRS:marcewq:1,2019-10-10T13:15:00Z,28.1323,-97.0344,2.0,13.2,11111222 
NERRS,ioos:station:NOAA.NERRS:marcewq:1,2019-10-10T14:15:00Z,28.1323,-97.0344,2.0,14.1,11111222 
NERRS,ioos:station:NOAA.NERRS:marcewq:1,2019-10-10T15:15:00Z,28.1323,-97.0344,2.01,11.8,11111222 
NERRS,ioos:station:NOAA.NERRS:marcewq:1,2019-10-10T16:15:00Z,28.1323,-97.0344,2.01,11.5,11111222 
NERRS,ioos:station:NOAA.NERRS:marcewq:1,2019-10-10T17:15:00Z,28.1323,-97.0344,2.0,12.6,11111222 
NERRS,ioos:station:NOAA.NERRS:marcewq:1,2019-10-10T18:15:00Z,28.1323,-97.0344,1.99,12.9,11111222 
NERRS,ioos:station:NOAA.NERRS:marcewq:1,2019-10-10T19:15:00Z,28.1323,-97.0344,1.97,12.9,11111222 
NERRS,ioos:station:NOAA.NERRS:marcewq:1,2019-10-10T20:15:00Z,28.1323,-97.0344,1.97,13.5,11111222 
NERRS,ioos:station:NOAA.NERRS:marcewq:1,2019-10-10T21:15:00Z,28.1323,-97.0344,1.96,14.2,11111222 
NERRS,ioos:station:NOAA.NERRS:marcewq:1,2019-10-10T22:15:00Z,28.1323,-97.0344,1.96,16.6,11111222 
NERRS,ioos:station:NOAA.NERRS:marcewq:1,2019-10-10T23:15:00Z,28.1323,-97.0344,1.95,14.4,11111222 
NERRS,ioos:station:NOAA.NERRS:marcewq:1,2019-10-11T00:15:00Z,28.1323,-97.0344,1.94,13.9,11111222 
NERRS,ioos:station:NOAA.NERRS:marcewq:1,2019-10-11T01:15:00Z,28.1323,-97.0344,1.94,12.0,11111222 
NERRS,ioos:station:NOAA.NERRS:marcewq:1,2019-10-11T02:15:00Z,28.1323,-97.0344,1.93,17.4,11111222 
NERRS,ioos:station:NOAA.NERRS:marcewq:1,2019-10-11T03:15:00Z,28.1323,-97.0344,1.93,14.6,11111222 
NERRS,ioos:station:NOAA.NERRS:marcewq:1,2019-10-11T04:15:00Z,28.1323,-97.0344,1.92,14.4,11111222 
NERRS,ioos:station:NOAA.NERRS:marcewq:1,2019-10-11T05:15:00Z,28.1323,-97.0344,1.91,17.3,11111222 
NERRS,ioos:station:NOAA.NERRS:marcewq:1,2019-10-11T06:15:00Z,28.1323,-97.0344,1.91,15.6,11111222 
NERRS,ioos:station:NOAA.NERRS:marcewq:1,2019-10-11T07:15:00Z,28.1323,-97.0344,1.92,15.2,11111222 
NERRS,ioos:station:NOAA.NERRS:marcewq:1,2019-10-11T08:15:00Z,28.1323,-97.0344,1.92,16.6,11111222 